Orbital Elements at Epoch 2459200.5 (2020-Dec-17.0) TDB
Reference: JPL 20 (heliocentric ecliptic J2000)
Element | Value | Uncertainty (1-sigma) | Units |
e | .2748701920081895 | 3.5476e-08 | |
a | 3.015678543735448 | 1.3198e-08 | au |
q | 2.186758403383908 | 1.0657e-07 | au |
i | .3893541785059297 | 4.771e-06 | deg |
node | 195.4108537651922 | 0.00054232 | deg |
peri | 154.4517460139249 | 0.00054242 | deg |
M | 25.95275962728986 | 7.813e-06 | deg |
tp | 2459062.602294636546 (2020-Aug-01.10229464) | 4.1456e-05 | TDB |
period | 1912.828332854541 5.24 | 1.2557e-05 3.438e-08 | d yr |
n | .1882029839357131 | 1.2355e-09 | deg/d |
Q | 3.844598684086988 | 1.6825e-08 | au |
|
| | Orbit Determination Parameters
Additional Information
|